Location: Downe
(51.3167°N, 0.0500°E)
Time: 13:13:50
(UTC+00:00)

Cosmos 1980 Rocket - Pass Details

Date: 17 November 2019
Orbit: 827 x 851 km, 71.0° (Epoch: 05 December)

Event Time Altitude Azimuth Distance (km) Brightness Sun altitude
Exits shadow 03:20:02 19° 129° (SE) 1,915 4.3 -37.0°
Drops below altitude 10° 03:21:35 10° 133° (SE) 2,472 4.9 -36.8°
Sets 03:24:04 0° 138° (SE) 3,401 5.6 -36.4°
